sat.trackr.live / text

‹ back to catalog

STARLINK-34682

NORAD 64854 · 2025-152N

PAYLOAD ACTIVE UNKNOWN

§ Identity

Operator
Country
US
Launch date
2025-07-19
Launch site
AFWTR
Launch vehicle
Mass (kg)
RCS (m²)

Purposes: comms

External: N2YO · Heavens-Above · Gunter

§ Orbital elements

Epoch: 2026-09-20T13:05:50.841312Z

Period
93.91 min
Inclination
97.2840°
Eccentricity
0.0002455
Mean motion
15.33445545 rev/d
Perigee alt
463.9 km
Apogee alt
467.2 km
Semi-major
6,843.7 km
B*
6.0739e-4
RAAN
114.1501°
Arg perigee
76.9003°
Mean anomaly
283.2513°
Rev number
6,483

§ Raw data

STARLINK-346821 64854U 25152N   26263.54572733  .00019586  00000+0  60739-3 0  99932 64854  97.2840 114.1501 0002455  76.9003 283.2513 15.33445545 64837

JSON: /api/v1/satellites/64854 · /tle

For live sub-satellite position, see the globe view (requires WebGL).

§ Visibility from observer

Set your observer location to see the next 7 days of passes ≥ 10°. The values pass through the URL so the page stays shareable.

No JS? Fill the form by hand. The geolocation button needs JavaScript.